Probability
0 0 0 0 0 0 0 0 0 0 0 0 0 0 0 0 0 0 0 6 13 13 13 19 23 26 19 16 13 10 19 16 19 23 16 16 10 13 16 16 16 16 19
0 0 0 0 0 0 0 0 0 0 0 0 0 0 0 0 0 0 0 0 10 10 6 10 16 26 23 19 23 16 16 19 19 10 13 16 16 13 16 19 16 10 16
0 0 0 0 0 0 0 0 0 0 0 0 0 0 0 0 0 0 0 0 0 3 3 0 3 10 23 19 19 19 13 19 19 19 16 19 19 13 13 16 10 10 10
0 0 0 0 0 0 0 0 0 0 0 0 0 0 0 0 0 0 0 0 0 0 0 3 3 3 19 23 19 23 16 23 19 19 19 19 19 13 6 10 10 10 6
0 0 0 0 0 0 0 0 0 0 0 0 0 0 0 0 0 0 0 0 0 0 0 0 0 0 6 13 23 23 19 16 19 16 19 13 16 6 3 6 6 10 6
0 0 0 0 0 0 0 0 0 0 0 0 0 0 0 0 0 0 0 0 0 0 0 0 0 0 0 6 16 13 10 13 16 13 13 13 6 3 3 6 3 3 0
0 0 0 0 0 0 0 0 0 0 0 0 0 0 0 0 0 0 0 0 0 0 0 0 0 0 0 3 3 6 3 3 13 16 13 6 3 3 3 3 0 0 0
0 0 0 0 0 0 0 0 0 0 0 0 0 0 0 0 0 0 0 0 0 0 0 0 0 0 0 0 0 0 0 3 3 6 6 6 6 3 3 0 0 0 0
0 0 0 0 0 0 0 0 0 0 0 0 0 0 0 0 0 0 0 0 0 0 0 0 0 0 0 0 0 0 0 0 3 3 3 3 0 3 6 3 0 0 0
0 0 0 0 0 0 0 0 0 0 0 0 0 0 0 0 0 0 0 0 0 0 0 0 0 0 0 0 0 0 0 0 0 0 3 3 3 3 0 0 0 0 0
0 0 0 0 0 0 0 0 0 0 0 0 0 0 0 0 0 0 0 0 0 0 0 0 0 0 0 0 0 0 0 0 0 0 0 3 3 0 0 0 0 0 0
0 0 0 0 0 0 0 0 0 0 0 0 0 0 0 0 0 0 0 0 0 0 0 0 0 0 0 0 0 0 0 0 0 0 0 0 0 0 0 0 0 0 0
0 0 0 0 0 0 0 0 0 0 0 0 0 0 0 0 0 0 0 0 0 0 0 0 0 0 0 0 0 0 0 0 0 0 0 0 0 0 0 0 0 0 0
0 0 0 0 0 0 0 0 0 0 0 0 0 0 0 0 0 0 0 0 0 0 0 0 0 0 0 0 0 0 0 0 0 0 0 0 0 0 0 0 3 0 0
0 0 0 0 0 0 0 0 0 0 0 0 0 0 0 0 0 0 0 0 0 0 0 0 0 0 0 0 0 0 0 0 0 0 0 0 0 0 0 0 0 0 0
0 0 0 0 0 0 0 0 0 0 0 0 0 0 0 0 0 0 0 0 0 0 0 0 0 0 0 0 0 0 0 0 0 0 0 0 0 0 0 0 0 0 0
0 0 0 0 0 0 0 0 0 0 0 0 0 0 0 0 0 0 0 0 0 0 0 0 0 0 0 0 0 0 0 0 0 0 0 0 0 0 0 0 0 0 0
0 0 0 0 0 0 0 0 0 0 0 0 0 0 0 0 0 0 0 0 0 0 0 0 0 0 0 0 0 0 0 0 0 0 0 0 0 0 0 0 0 0 0
0 0 0 0 0 0 0 0 0 0 0 0 0 0 0 0 0 0 0 0 0 0 0 0 0 0 0 0 0 0 0 0 0 0 0 0 0 0 0 0 0 0 0
0 0 0 0 0 0 0 0 0 0 0 0 0 0 0 0 0 0 0 0 0 0 0 0 0 0 0 0 0 0 0 0 0 0 0 0 0 0 0 0 0 0 0
0 0 0 0 0 0 0 0 0 0 0 0 0 0 0 0 0 0 0 0 0 0 0 0 0 0 0 0 0 0 0 0 0 0 0 0 0 0 0 0 0 0 0
0 0 0 0 0 0 0 0 0 0 0 0 0 0 0 0 0 0 0 0 0 0 0 0 0 0 0 0 0 0 0 0 0 0 0 0 0 0 0 0 0 0 0
0 0 0 0 0 0 0 0 0 0 0 0 0 0 0 0 0 0 0 0 0 0 0 0 0 0 0 0 0 0 0 0 0 0 0 0 0 0 0 0 0 0 0
0 0 0 0 0 0 0 0 0 0 0 0 0 0 0 0 0 0 0 0 0 0 0 0 0 0 0 0 0 0 0 0 0 0 0 0 0 0 0 0 0 0 0
0 0 0 0 0 0 0 0 0 0 0 0 0 0 0 0 0 0 0 0 0 0 0 0 0 0 0 0 0 0 0 0 0 0 0 0 0 0 0 0 0 0 0
0 0 0 0 0 0 0 0 0 0 0 0 0 0 0 0 0 0 0 0 0 0 0 0 0 0 0 0 0 0 0 0 0 0 0 0 0 0 0 0 0 0 0
Height
5882 5882 5882 5882 5881 5881 5880 5880 5880 5879 5878 5877 5876 5875 5874 5873 5873 5872 5871 5870 5869 5868 5867 5866 5865 5864 5864 5863 5863 5863 5863 5863 5863 5863 5863 5863 5863 5863 5863 5864 5864 5864 5865
5880 5880 5880 5880 5880 5879 5879 5878 5878 5877 5876 5876 5875 5874 5873 5872 5871 5870 5869 5868 5867 5866 5865 5864 5863 5862 5862 5861 5861 5861 5861 5861 5861 5861 5861 5861 5861 5861 5861 5861 5861 5861 5861
5878 5878 5878 5878 5878 5877 5877 5876 5876 5875 5875 5874 5873 5872 5871 5870 5869 5868 5867 5866 5865 5864 5863 5862 5861 5860 5860 5859 5858 5858 5858 5858 5858 5858 5858 5858 5858 5858 5858 5858 5858 5858 5858
5877 5876 5876 5876 5876 5875 5875 5875 5874 5873 5873 5872 5871 5870 5869 5868 5867 5866 5865 5864 5863 5862 5861 5860 5859 5858 5857 5856 5856 5855 5855 5855 5855 5855 5855 5855 5855 5855 5855 5855 5855 5855 5855
5875 5875 5874 5874 5874 5873 5873 5873 5872 5871 5871 5870 5869 5868 5867 5866 5865 5864 5863 5862 5861 5860 5859 5858 5857 5856 5855 5854 5853 5853 5852 5852 5852 5852 5852 5852 5852 5852 5852 5852 5852 5852 5852
5872 5872 5872 5872 5872 5871 5871 5870 5870 5869 5868 5868 5867 5866 5865 5864 5863 5862 5861 5860 5859 5858 5857 5856 5855 5854 5853 5852 5851 5850 5850 5849 5849 5849 5849 5849 5849 5849 5849 5848 5848 5848 5848
5870 5870 5870 5869 5869 5869 5868 5868 5867 5867 5866 5866 5865 5864 5863 5862 5861 5860 5859 5858 5857 5856 5855 5854 5853 5852 5851 5850 5849 5848 5847 5847 5846 5846 5846 5846 5846 5846 5845 5845 5845 5845 5844
5867 5867 5867 5867 5867 5866 5866 5865 5865 5865 5864 5863 5862 5861 5861 5860 5858 5857 5856 5855 5854 5853 5853 5852 5851 5850 5849 5848 5847 5846 5845 5844 5844 5844 5844 5843 5843 5843 5843 5842 5842 5841 5841
5864 5864 5864 5864 5864 5864 5864 5863 5863 5862 5862 5861 5860 5859 5858 5857 5856 5855 5854 5853 5852 5851 5850 5849 5848 5847 5846 5845 5845 5844 5843 5842 5842 5841 5841 5840 5840 5840 5840 5839 5839 5838 5838
5861 5861 5861 5861 5861 5861 5861 5861 5861 5860 5859 5858 5858 5857 5856 5855 5854 5853 5852 5851 5850 5849 5848 5847 5846 5845 5844 5843 5843 5842 5841 5840 5839 5839 5838 5838 5837 5837 5836 5836 5835 5835 5834
5858 5858 5858 5858 5858 5858 5858 5858 5858 5857 5857 5856 5855 5854 5853 5852 5852 5851 5850 5849 5848 5846 5845 5844 5844 5843 5842 5841 5840 5840 5839 5838 5837 5836 5835 5835 5834 5834 5833 5832 5832 5831 5830
5855 5855 5855 5855 5855 5855 5855 5855 5855 5854 5854 5853 5852 5852 5851 5850 5849 5848 5847 5846 5845 5844 5843 5842 5841 5840 5839 5838 5838 5837 5836 5836 5835 5834 5833 5832 5831 5831 5830 5829 5828 5827 5827
5851 5851 5851 5852 5852 5852 5852 5851 5851 5851 5850 5850 5849 5849 5848 5847 5846 5845 5844 5844 5843 5842 5840 5839 5838 5837 5836 5836 5835 5835 5834 5833 5832 5831 5830 5829 5828 5827 5826 5825 5824 5823 5822
5848 5848 5848 5848 5848 5848 5848 5848 5848 5847 5847 5847 5846 5845 5845 5844 5843 5842 5841 5841 5839 5839 5837 5836 5834 5833 5833 5832 5832 5832 5831 5830 5829 5828 5827 5826 5825 5823 5822 5821 5820 5819 5818
5844 5844 5844 5844 5844 5844 5844 5844 5844 5844 5843 5843 5843 5842 5841 5841 5840 5839 5838 5837 5837 5836 5835 5833 5832 5830 5829 5829 5829 5828 5828 5827 5826 5825 5823 5822 5821 5820 5818 5817 5816 5815 5813
5840 5840 5841 5841 5840 5840 5840 5840 5840 5840 5840 5839 5839 5838 5838 5837 5836 5835 5835 5834 5833 5832 5831 5830 5828 5827 5826 5825 5825 5825 5824 5823 5822 5821 5820 5818 5817 5816 5814 5813 5811 5810 5808
5836 5836 5837 5836 5836 5836 5837 5836 5836 5836 5836 5836 5835 5835 5834 5834 5833 5832 5832 5831 5830 5829 5828 5826 5825 5823 5822 5822 5821 5821 5821 5820 5819 5817 5816 5814 5813 5811 5809 5808 5806 5804 5803
5832 5832 5832 5832 5832 5833 5833 5832 5832 5832 5832 5832 5831 5831 5831 5830 5830 5829 5828 5828 5827 5826 5825 5823 5822 5821 5820 5819 5818 5818 5817 5816 5815 5813 5811 5810 5808 5806 5804 5803 5801 5799 5797
5827 5828 5828 5829 5829 5829 5829 5828 5828 5828 5828 5828 5828 5827 5827 5827 5826 5826 5825 5824 5823 5822 5821 5820 5819 5818 5817 5816 5815 5814 5813 5812 5810 5808 5807 5805 5803 5801 5799 5797 5795 5792 5790
5823 5824 5824 5824 5825 5825 5824 5825 5824 5824 5824 5824 5824 5823 5823 5823 5823 5822 5821 5821 5820 5819 5818 5817 5816 5815 5813 5812 5811 5810 5808 5807 5805 5803 5801 5799 5797 5795 5793 5791 5788 5786 5783
5819 5820 5820 5820 5820 5821 5821 5821 5820 5820 5820 5820 5820 5820 5820 5819 5819 5818 5818 5817 5816 5815 5814 5813 5812 5811 5809 5808 5807 5805 5804 5802 5800 5798 5796 5794 5792 5789 5787 5784 5781 5778 5775
5815 5815 5815 5816 5816 5816 5816 5816 5816 5816 5816 5816 5816 5816 5816 5816 5815 5814 5814 5813 5812 5812 5811 5810 5808 5807 5805 5803 5802 5800 5798 5797 5795 5793 5790 5788 5785 5783 5780 5777 5774 5771 5768
5810 5810 5811 5811 5812 5812 5812 5812 5812 5812 5813 5813 5812 5812 5812 5812 5811 5810 5809 5809 5808 5807 5807 5806 5804 5802 5800 5798 5797 5795 5793 5791 5789 5787 5784 5782 5779 5776 5773 5769 5766 5763 5760
5806 5806 5806 5807 5807 5808 5808 5808 5808 5808 5808 5808 5808 5808 5808 5807 5806 5806 5805 5805 5804 5803 5802 5801 5799 5797 5795 5793 5791 5789 5787 5785 5783 5781 5778 5776 5772 5769 5765 5762 5758 5755 5752
5801 5802 5802 5802 5803 5803 5803 5803 5803 5804 5804 5804 5804 5804 5803 5802 5802 5801 5801 5800 5799 5798 5797 5795 5794 5792 5790 5787 5785 5783 5781 5779 5777 5774 5771 5768 5765 5761 5758 5754 5750 5747 5743
5797 5797 5797 5798 5798 5798 5798 5798 5798 5798 5799 5799 5799 5799 5798 5798 5797 5796 5795 5795 5794 5793 5792 5790 5788 5786 5784 5782 5780 5778 5775 5773 5770 5768 5764 5761 5757 5754 5750 5746 5742 5739 5735
Wind_Speed
8 9 9 9 10 9 9 9 9 9 9 8 8 8 9 9 9 9 9 9 9 9 9 10 10 10 11 11 11 11 11 12 12 12 12 12 12 12 12 12 12 13 13
9 9 9 9 9 9 8 9 9 8 8 8 8 9 9 9 9 9 10 10 9 9 9 10 10 10 11 11 11 12 12 12 12 13 13 13 13 13 13 13 14 13 14
9 9 8 9 9 9 9 9 9 9 9 9 9 10 10 10 10 10 10 10 10 10 10 10 10 10 11 11 11 12 12 13 13 13 13 13 13 13 13 13 13 13 14
10 9 9 9 9 9 9 9 9 9 9 10 10 10 10 11 10 11 11 11 10 10 11 11 11 10 10 11 12 12 12 12 13 13 12 13 13 12 13 13 13 14 14
11 10 10 10 10 9 10 10 10 10 10 9 10 11 11 10 10 11 11 11 11 10 11 11 11 11 11 11 11 11 11 11 12 12 12 12 12 12 13 13 13 14 15
12 11 11 11 11 10 11 11 10 10 10 9 10 11 11 11 11 11 11 11 11 10 10 11 11 11 11 11 11 11 11 11 11 12 12 12 13 13 13 13 14 15 15
12 12 11 11 11 11 11 11 10 10 10 10 10 11 11 11 11 11 10 11 11 11 10 11 11 11 11 11 11 11 11 11 11 12 12 12 12 13 13 14 14 14 15
13 12 12 11 11 11 11 10 9 9 10 11 11 11 11 11 11 11 11 11 11 10 10 11 10 10 10 11 11 11 10 10 11 11 12 12 12 12 13 14 14 14 15
13 13 13 12 11 11 11 10 10 10 10 11 11 11 10 11 11 11 11 11 11 10 10 10 10 10 10 10 11 11 11 11 11 12 12 12 12 13 14 14 14 15 15
13 13 13 12 12 11 12 11 11 11 10 10 10 10 10 11 11 11 11 11 11 11 11 11 10 10 10 11 11 11 11 11 11 11 12 12 12 12 13 14 14 14 14
13 13 13 13 12 12 13 12 12 12 11 11 11 11 11 12 11 12 11 11 11 12 12 12 12 11 11 11 11 11 11 11 11 12 12 12 12 13 13 14 14 15 14
13 13 13 13 13 13 14 13 12 12 12 11 11 12 12 12 12 12 12 12 12 12 13 13 12 12 12 12 12 11 11 11 12 12 13 13 14 14 15 15 15 15 15
14 15 14 14 14 14 14 14 13 13 13 12 12 12 13 13 12 12 12 12 12 12 12 13 13 12 12 12 12 12 12 13 13 13 14 15 15 16 16 16 16 16 16
15 15 15 14 14 14 14 14 14 13 13 13 13 13 13 13 13 12 12 13 12 12 12 13 13 13 12 12 12 12 13 13 14 14 15 16 16 17 17 17 17 17 17
15 14 14 15 15 15 15 14 14 14 14 13 13 14 14 14 14 12 12 12 12 12 12 13 13 13 13 13 13 13 14 14 14 15 15 16 17 17 17 17 18 19 19
16 15 15 15 15 16 15 15 15 15 15 14 14 14 13 13 13 13 12 12 12 12 12 12 13 13 12 13 13 14 14 14 15 16 16 17 17 18 18 18 19 19 20
16 16 16 15 15 15 16 16 15 15 15 15 14 14 14 13 13 13 12 12 13 13 13 13 13 13 13 13 14 14 14 15 16 17 17 18 18 19 19 19 20 21 21
17 16 15 14 15 15 15 15 15 15 14 13 13 13 13 12 12 12 12 13 13 13 13 13 13 13 13 14 14 15 15 16 17 18 18 19 19 20 20 20 21 22 23
16 16 14 14 14 14 14 14 14 13 13 13 13 13 13 13 13 13 13 14 14 14 14 14 13 14 14 15 15 16 16 17 19 19 19 20 20 20 20 22 23 24 25
16 15 15 14 14 15 15 14 14 13 12 12 12 13 13 13 13 13 13 13 14 14 14 14 15 15 16 16 17 17 18 19 19 20 20 20 21 21 22 23 24 25 26
16 15 15 15 16 16 15 14 14 13 13 13 13 13 13 13 13 13 13 14 14 14 15 15 16 16 17 17 18 18 19 20 20 20 21 21 23 24 24 25 26 26 27
16 15 15 15 15 15 15 15 15 14 13 13 13 13 13 14 14 14 15 15 16 16 16 16 17 17 17 18 18 19 20 21 21 21 22 23 24 25 26 27 27 27 28
15 15 16 16 15 15 15 15 15 14 14 14 14 14 14 14 15 15 16 16 16 16 17 17 18 18 18 19 19 20 21 22 22 22 23 25 26 27 28 28 28 28 28
15 16 16 16 16 16 17 16 16 15 15 14 14 15 15 16 17 17 17 17 17 17 18 19 20 20 21 21 21 21 21 21 22 23 25 26 28 29 29 29 28 29 30
16 16 16 16 17 17 17 17 16 16 16 16 16 17 17 17 18 18 18 18 19 19 20 20 20 21 22 21 21 21 22 23 24 25 26 28 29 29 30 30 31 31 32
16 16 16 17 17 17 17 17 17 18 18 18 18 19 18 19 19 18 19 19 20 21 21 21 21 21 22 21 22 23 24 25 26 27 28 29 29 30 30 31 32 33 33
Wind_Direction
273 277 281 285 285 285 289 293 295 300 304 307 306 307 308 308 308 307 307 307 306 303 302 301 298 293 287 282 281 276 274 274 275 271 271 272 272 266 264 264 265 266 265
273 276 276 280 286 288 288 288 290 296 302 303 303 306 306 307 307 305 305 305 303 302 304 303 298 292 287 285 282 281 278 277 277 274 273 273 275 272 268 265 265 266 267
270 276 273 278 284 287 288 287 288 293 297 297 300 303 305 306 305 304 304 305 304 303 305 301 299 296 293 288 285 284 282 278 277 275 277 278 278 275 271 270 269 270 268
267 269 273 280 283 282 284 285 289 291 290 292 297 300 302 303 302 304 304 304 305 306 304 301 299 299 297 292 288 287 284 282 278 279 278 276 279 277 271 270 268 270 270
263 266 274 276 277 279 282 283 286 287 287 289 297 300 300 302 302 304 305 304 305 306 304 302 299 297 297 293 291 289 286 283 281 278 277 275 277 279 273 271 271 271 271
263 268 273 272 275 280 283 282 285 284 286 289 294 296 299 299 300 302 304 305 306 307 305 304 302 299 299 296 294 290 289 286 283 279 278 277 278 279 278 277 275 274 273
264 269 271 273 275 279 284 284 285 286 287 289 291 293 298 299 298 302 304 306 305 306 304 302 303 300 297 297 296 293 290 289 287 283 282 282 281 281 281 281 280 277 277
262 266 269 272 275 278 281 282 284 288 290 292 291 292 295 298 301 302 304 305 305 304 304 304 302 302 298 294 295 296 291 290 289 285 285 284 284 284 284 282 282 280 281
259 261 266 269 271 275 278 280 283 287 289 291 291 292 293 297 297 298 300 301 302 303 304 304 301 298 300 297 294 298 293 292 292 288 288 288 289 285 286 283 283 279 282
258 261 265 267 269 272 275 278 280 282 286 290 292 290 292 296 294 294 296 297 298 300 300 301 301 299 299 298 296 297 298 297 297 293 288 288 287 289 290 287 283 283 282
260 265 268 267 270 274 276 274 276 280 284 288 289 289 292 295 291 292 292 294 296 297 297 298 299 299 299 298 297 297 299 301 302 300 293 289 289 290 292 292 288 283 281
260 263 269 271 272 273 275 273 276 279 283 284 286 287 291 294 290 293 292 291 292 294 296 297 297 297 297 297 296 296 299 301 301 301 298 294 293 292 291 290 289 286 283
262 265 269 271 273 273 274 274 276 277 282 282 283 285 288 291 288 290 290 289 290 293 295 296 297 297 296 295 295 296 299 298 296 297 297 294 294 294 292 290 287 286 287
263 268 271 271 272 275 275 273 275 273 277 279 281 283 284 289 289 290 290 289 288 289 291 294 294 295 294 293 294 294 296 297 297 295 295 294 295 295 293 290 287 286 288
262 266 268 271 272 273 274 274 273 272 273 275 277 279 280 283 286 286 286 285 287 287 290 293 291 291 291 291 293 294 295 295 298 300 298 297 298 297 295 292 290 289 289
261 262 266 271 272 272 272 272 271 274 274 274 277 280 282 283 284 284 284 285 288 288 290 294 293 292 291 291 291 293 296 297 298 299 301 300 298 298 297 294 293 292 292
261 262 264 269 271 273 272 272 273 275 274 275 275 278 281 281 282 285 286 289 290 291 291 293 295 294 293 292 291 294 297 299 300 300 301 302 301 299 297 296 294 294 294
261 261 265 268 270 272 273 274 275 275 271 274 277 276 277 280 283 286 287 291 293 293 290 292 296 295 294 292 292 293 297 300 302 303 303 303 302 300 298 297 297 296 296
257 258 261 266 268 271 274 276 275 273 271 270 272 276 276 279 280 283 285 288 291 294 295 294 297 295 293 290 290 293 297 300 302 303 303 302 302 301 299 298 297 297 297
255 258 261 263 264 268 271 272 270 268 271 274 276 277 275 278 284 286 287 288 291 293 296 298 297 298 296 295 295 298 299 301 303 303 303 303 301 301 301 300 299 299 298
258 261 262 263 264 266 267 267 267 265 270 274 278 279 277 278 284 288 289 290 293 294 294 296 298 298 297 297 297 299 301 302 303 304 303 304 304 303 303 303 303 301 300
258 258 260 264 266 263 265 265 265 267 270 274 277 277 277 279 280 285 291 292 292 292 293 295 298 299 299 299 299 301 303 302 304 304 304 305 306 306 306 305 303 302 302
260 258 259 260 263 266 268 269 267 266 270 273 276 278 281 281 283 284 287 290 290 292 294 294 298 299 299 299 299 300 301 301 302 303 304 305 306 307 306 305 304 303 304
264 260 257 258 261 265 266 267 266 267 270 272 274 277 282 284 284 285 285 287 288 291 294 296 298 297 298 299 300 300 301 301 302 302 303 305 306 306 305 306 305 305 305
265 260 257 259 263 265 264 264 266 269 271 273 275 278 282 284 286 286 283 284 288 291 294 296 297 297 299 300 300 302 303 302 303 304 305 306 306 305 304 305 305 305 305
267 261 260 262 265 265 265 264 268 270 270 270 274 278 281 283 286 286 283 285 288 291 293 295 298 299 300 299 299 300 301 302 302 304 305 307 306 305 304 304 304 304 304